This is the latest recevied weather packets stored in our database for station/object F4THN-13. If no packets are shown the sender has not sent any weather packets the latest 1 day(s).
| Time | Temp. | Humidity | Pressure | Rain* | Wind** | Luminosity | Snow |
|---|---|---|---|---|---|---|---|
| 1777997887 | 17.78° C | 70% | 1009.3 hPa | 0 mm | 0 m/s | - | - |
| 1777996387 | 18.33° C | 69% | 1009.7 hPa | 0 mm | 2.24 m/s, 203° | - | - |
| 1777994887 | 18.89° C | 70% | 1009.7 hPa | 0 mm | 2.68 m/s, 225° | - | - |
| 1777993387 | 18.33° C | 72% | 1009.7 hPa | 0 mm | 2.24 m/s, 225° | - | - |
| 1777991886 | 18.89° C | 70% | 1009.5 hPa | 0 mm | 0 m/s | - | - |
| 1777990386 | 19.44° C | 70% | 1009.7 hPa | 0 mm | 0 m/s | - | - |
| 1777988886 | 19.44° C | 70% | 1009.4 hPa | 0 mm | 0 m/s | - | - |
| 1777987386 | 19.44° C | 71% | 1009.6 hPa | 0 mm | 0.89 m/s, 180° | - | - |
| 1777985886 | 19.44° C | 71% | 1009.4 hPa | 0 mm | 0 m/s | - | - |
| 1777984386 | 19.44° C | 72% | 1009.3 hPa | 0 mm | 4.47 m/s, 180° | - | - |
| 1777982885 | 19.44° C | 75% | 1009.5 hPa | 0 mm | 2.68 m/s, 135° | - | - |
| 1777981385 | 19.44° C | 77% | 1009.6 hPa | 0 mm | 2.68 m/s, 158° | - | - |
| 1777979885 | 18.89° C | 80% | 1010.1 hPa | 0 mm | 0 m/s | - | - |
| 1777978385 | 18.33° C | 81% | 1010.1 hPa | 0 mm | 2.68 m/s, 158° | - | - |
| 1777976885 | 17.22° C | 84% | 1010.3 hPa | 0 mm | 0.45 m/s, 248° | - | - |
| 1777975385 | 16.11° C | 85% | 1010.4 hPa | 0 mm | 0.89 m/s, 135° | - | - |
| 1777973884 | 15° C | 87% | 1010.3 hPa | 0.51 mm | 0 m/s | - | - |
| 1777972384 | 14.44° C | 87% | 1010.3 hPa | 0.51 mm | 0 m/s | - | - |
| 1777970884 | 14.44° C | 88% | 1010 hPa | 0 mm | 0 m/s | - | - |
| 1777969384 | 14.44° C | 88% | 1010 hPa | 0 mm | 0 m/s | - | - |
| 1777967884 | 13.33° C | 89% | 1009.9 hPa | 0.51 mm | 0 m/s | - | - |
| 1777966384 | 13.33° C | 89% | 1009.9 hPa | 0.51 mm | 0 m/s | - | - |
| 1777964884 | 13.33° C | 90% | 1009.8 hPa | 0.51 mm | 0 m/s | - | - |
| 1777963383 | 13.33° C | 90% | 1009.7 hPa | 0.51 mm | 0 m/s | - | - |
| 1777961883 | 12.78° C | 91% | 1009.7 hPa | 0.51 mm | 0 m/s | - | - |
* Rain latest hour (hover to see other rain measurements)
** Current wind speed in m/s (hover to see current wind gust speed)